Regional Weather Roundup
Issued by NWS Sterling, VA

Home | Current Version | Previous Version | Text Only | Print | Product List | Glossary Off
Versions: 1 2 3 4 5 6 7 8 9 10 11 12 13 14 15 16 17 18 19 20 21 22 23 24 25 26 27 28 29 30 31 32 33 34 35 36 37 38 39 40 41 42 43 44 45 46 47 48 49 50

000
ASUS41 KLWX 291710
RWRLWX

REGIONAL WEATHER ROUNDUP
NATIONAL WEATHER SERVICE BALTIMORE MD/WASHINGTON DC
100 PM EDT FRI MAY 29 2015

Note: "FAIR" indicates few or no clouds below 12,000 feet
with no significant weather and/or obstructions to visibility.
 TC=TEMPERATURE CELSIUS

 * =Non NWS site. Station does not report precipitation (e.g. rain,
    snow, etc.), thunder, or fog.

DCZ001-MDZ009-015-VAZ040>042-051-053>054-291800-
WASHINGTON METRO

CITY           SKY/WX    TMP DP  RH WIND       PRES   REMARKS
WASHINGTON NAT CLOUDY    79  69  71 E7        30.27S
DULLES         PTSUNNY   79  69  71 VRB5      30.26S
ANDREWS AFB    CLOUDY    74  69  81 E6        30.26F
FT BELVOIR     PTSUNNY   79  70  73 VRB3      30.26F
QUANTICO       MOSUNNY   79  70  74 NE6       30.26F
COLLEGE PARK*  CLOUDY    77  68  73 CALM      30.27S
LEESBURG*      PTSUNNY   81  70  69 SE5       30.28R
MANASSAS*      CLOUDY    79  72  78 SE5       30.26F
GAITHERSBURG*  SUNNY     79  66  65 E5        30.31S

$$

MDZ006>007-011-014-291800-
BALTIMORE METRO

CITY           SKY/WX    TMP DP  RH WIND       PRES   REMARKS
BWI AIRPORT    MOSUNNY   78  62  57 E5        30.26F
MD SCIENCE CTR   N/A     78  61  55 MISG      30.27F
MARTIN STATE   MOSUNNY   79  64  61 SE7       30.29S
ANNAPOLIS      CLOUDY    75  65  70 SE5       30.27S
FORT MEADE*    SUNNY     77  64  65 E6        30.29F

$$

MDZ012-015-019>023-291800-
MARYLAND EASTERN SHORE

CITY           SKY/WX    TMP DP  RH WIND       PRES   REMARKS
OCEAN CITY     SUNNY     73  64  73 SE7       30.28R
SALISBURY      MOSUNNY   83  66  56 VRB3      30.25S
BAY BRIDGE AP*   N/A    N/A N/A N/A E3        30.27S
CAMBRIDGE*     MOSUNNY   82  68  61 SE3       30.25S
EASTON*        MOSUNNY   82  68  61 E6        30.30S

$$

MDZ017>025-291800-
SOUTHERN MARYLAND

CITY           SKY/WX    TMP DP  RH WIND       PRES   REMARKS
PATUXENT RIVER MOSUNNY   79  67  66 E7        30.25F
ST INIGOES     SUNNY     82  69  64 SE6       30.24F
LEONARDTOWN*   SUNNY     79  68  69 E7        30.27S

$$

MDZ003>005-291800-
NORTH CENTRAL MARYLAND

CITY           SKY/WX    TMP DP  RH WIND       PRES   REMARKS
FREDERICK*     SUNNY     82  66  57 VRB5      30.28F
HAGERSTOWN APT MOSUNNY   82  61  48 S8        30.26F
WESTMINSTER*   SUNNY     82  64  54 S3        30.28S

$$

MDZ501>502-291800-
WESTERN MARYLAND

CITY           SKY/WX    TMP DP  RH WIND       PRES   REMARKS
OAKLAND*       SUNNY     73  70  88 SE7G16    30.32F
CUMBERLAND*    SUNNY     79  61  53 CALM      30.30F

$$

VAZ025>031-291800-
SHENANDOAH VALLEY

CITY           SKY/WX    TMP DP  RH WIND       PRES   REMARKS
WINCHESTER*    CLOUDY    79  59  50 CALM      30.27F
FRONT ROYAL*   FAIR      75  70  83 E8        30.26F
LURAY*         CLOUDY    79  70  73 CALM      30.26F
NEW MARKET*    PTSUNNY   82  66  59 E5        30.24F
STAUNTON*      MOSUNNY   84  68  57 SE7       30.28F
WAYNESBORO*    FAIR      79  67  64 S5        30.28F

$$

WVZ021-048>050-054>055-291800-
EASTERN WEST VIRGINIA PANHANDLE

CITY           SKY/WX    TMP DP  RH WIND       PRES   REMARKS
MARTINSBURG    MOSUNNY   79  63  57 CALM      30.27F
PETERSBURG*    MOSUNNY   79  63  56 S3        30.26F

$$

VAZ036>039-050-291800-
CENTRAL FOOTHILLS

CITY           SKY/WX    TMP DP  RH WIND       PRES   REMARKS
CHARLOTTESVILL CLOUDY    80  69  69 N8        30.26S
CULPEPER*      MOSUNNY   80  71  72 E5        30.25F
ORANGE*        MOSUNNY   82  72  69 NW5       30.27S
GORDONSVILLE*  FAIR      80  70  73 NW3       30.24F
WARRENTON*     FAIR      82  73  74 NE3       30.25F

$$

VAZ055>057-291800-
NORTH AND CENTRAL PIEDMONT

CITY           SKY/WX    TMP DP  RH WIND       PRES   REMARKS
FREDERICKSBRG* MOSUNNY   84  73  67 NE6       30.23F HX  90
STAFFORD*      PTSUNNY   81  69  67 E7        30.29F

$$

NCZ024-NYZ072-PAZ021-071-VAZ022-071-291800-
OTHER REGIONAL OBSERVATIONS

CITY           SKY/WX    TMP DP  RH WIND       PRES   REMARKS
NEW YORK CITY  SUNNY     82  53  36 CALM      30.29F
PHILADELPHIA   MOSUNNY   83  58  42 NE5       30.26F
PITTSBURGH     CLOUDY    83  62  49 S8        30.20F
ROANOKE        MOSUNNY   81  64  56 SE8       30.26F
RICHMOND       MOSUNNY   86  68  54 SE9       30.24S
RALEIGH        MOSUNNY   83  68  60 CALM      30.25F

$$

ANZ530>537-291800-
MARINE OBSERVATIONS

STATION/POSITION TIME  TEMP    WIND        PRES
                       AIR SEA DIR/SP/G
                 (UTC) (F)     (DEG/KT/KT) (MB)
THOMAS PT LIGHT  1700   70 70   10/  8/  8 1025.4F
BALT KEY BRIDGE  1600   72     100/  8/  9 1025.0F
COVE POINT       1600   76      CALM  /  1 1025.5S
LEWISETTA        1600   74 72              1024.3F
SOLOMONS ISLAND  1600      74                N/A
PINEY POINT      1600          170/  5/  5   N/A

$$




USA.gov is the U.S. government's official web portal to all federal, state and local government web resources and services.